User: anonymous   Login
Location: Newark
(54.6833°N, 25.2833°E)
Time: 10:46:18
(UTC+00:00)
Language:

Tiros 1 despin weight - Orbit

View from above orbital plane
View from above orbital plane
View from above satellite
View from above satellite

Ground track
Ground track

The orbit data is extracted from the following two-line orbital elements,

1 00115U 60002D   21020.92067291 -.00000002  00000-0  26896-4 0  9994
2 00115  48.1673 308.4470 0033730 127.5471 232.8514 14.83684330224101
Epoch (UTC): 20 January 2021 22:05:46
Eccentricity: 0.0033730
inclination: 48.1673°
perigee height: 594 km
apogee height: 641 km
right ascension of ascending node: 308.4470°
argument of perigee: 127.5471°
revolutions per day: 14.83684330
mean anomaly at epoch: 232.8514°
orbit number at epoch: 22410

The dashed part of the orbit path shows where the satellite is in the earth's shadow,  

DLR